Regional Weather Roundup
Issued by NWS

Home | Current Version | Previous Version | Graphics & Text | Print | Product List | Glossary Off
Versions: 1 2 3 4 5 6 7 8 9 10 11 12 13 14 15 16 17 18 19 20 21 22 23 24 25 26 27 28 29 30 31 32 33 34 35 36 37 38 39 40 41 42 43 44 45 46 47 48 49 50

000
ASUS43 KTOP 290359
RWRKS

WEATHER ROUNDUP FOR KANSAS
NATIONAL WEATHER SERVICE GOODLAND KS
1100 PM CDT WED SEP 28 2016

NOTE:  "FAIR" INDICATES FEW OR NO CLOUDS BELOW 12,000 FEET WITH NO
SIGNIFICANT WEATHER AND/OR OBSTRUCTIONS TO VISIBILITY.

KSZ001>006-013>018-027>032-041>047-290500-
NORTHWEST KANSAS

CITY           SKY/WX    TMP DP  RH WIND       PRES   REMARKS
GOODLAND       CLEAR     54  43  66 E7        30.34R
HAYS           CLEAR     54  39  58 E8        30.31R
HILL CITY      CLEAR     48  43  82 CALM      30.33R
RUSSELL        CLEAR     53  46  77 E7        30.30R
$$

KSZ061>065-074>080-084>089-290500-
SOUTHWEST KANSAS

CITY           SKY/WX    TMP DP  RH WIND       PRES   REMARKS
DODGE CITY     CLEAR     55  39  54 E7        30.30R
ELKHART          N/A     62  41  46 SE10        N/A
GARDEN CITY    CLEAR     58  40  51 E10       30.30R
GREAT BEND     CLEAR     55  41  58 E7        30.30S
LIBERAL        CLEAR     63  41  45 E10       30.31R
$$

KSZ066>073-081>083-090>101-290500-
SOUTHEAST KANSAS

CITY           SKY/WX    TMP DP  RH WIND       PRES   REMARKS
CHANUTE        CLEAR     57  49  74 N7        30.25R
COFFEYVILLE    CLEAR     58  49  72 N12       30.23R
HUTCHINSON     CLEAR     56  46  69 NE5       30.29R
MEDICINE LODGE   N/A     58  48  69 NE8       30.28R
NEWTON         CLEAR     54  47  77 NE6       30.29R
PARSONS        CLEAR     57  49  74 N5        30.25R
WICHITA INTL   CLEAR     57  48  72 NE9       30.27R
WICHITA JABRA  CLEAR     54  48  80 N6        30.28R
WINFIELD       CLEAR     58  48  69 NE10      30.26R
$$

KSZ007>012-019>026-033>040-048>060-102>105-290500-
NORTHEAST KANSAS

CITY           SKY/WX    TMP DP  RH WIND       PRES   REMARKS
CONCORDIA      CLEAR     54  46  74 NE5       30.32R
EMPORIA        CLEAR     53  48  83 NE6       30.28R
LAWRENCE       MOCLDY    51  49  92 NW5       30.28R
MANHATTAN      CLEAR     55  47  74 N5        30.30R
OLATHE IND     CLEAR     53  47  79 N8        30.27S
OLATHE EXE     CLEAR     56  45  66 N8        30.27R
SALINA         CLEAR     59  46  62 NE7       30.30R
TOPEKA BILLARD CLEAR     53  48  83 N5        30.29R
TOPEKA FORBES  CLEAR     55  48  77 N3        30.29R
$$




USA.gov is the U.S. government's official web portal to all federal, state and local government web resources and services.